When you browse on this site, cookies collect data to enhance your experience and personalize the content and advertising you see.
Visit our Privacy Policy to learn more. By continuing to use the site, you agree to this use of cookies and data.
  • In Deutschland
  • Länderverzeichnis
  • Für 7 Tage
  • Wassertemperatur
  • Satellitenkarten
  • Wetterkarte
  • Widgets
  • user-avatar
    Anmelden

    Stündliche Wetter Cruzília

    Heute, 19 Dezember, Mittwoch

    Zeit Temperatur Niederschläge Wind Luftdruck Luftfeuchtigkeit
    00:00 +21°C° 0.3 mm 1 m/S 672 mmHg 89%
    01:00 +21°C° 0.1 mm 1 m/S 672 mmHg 89%
    02:00 +20°C° 0.1 mm 1 m/S 671 mmHg 89%
    03:00 +20°C° 0.1 mm 1 m/S 671 mmHg 90%
    04:00 +20°C° 0 mm 1 m/S 671 mmHg 89%
    05:00 +21°C° 0 mm 1 m/S 671 mmHg 88%
    06:00 +21°C° 0 mm 1 m/S 671 mmHg 88%
    07:00 +23°C° 0 mm 1 m/S 672 mmHg 80%
    08:00 +26°C° 0 mm 1 m/S 673 mmHg 72%
    09:00 +26°C° 0 mm 0 m/S 673 mmHg 64%
    10:00 +29°C° 0 mm 1 m/S 673 mmHg 60%
    11:00 +30°C° 0 mm 1 m/S 673 mmHg 57%
    12:00 +31°C° 0 mm 1 m/S 673 mmHg 53%
    13:00 +30°C° 0.9 mm 1 m/S 672 mmHg 57%
    14:00 +30°C° 0.9 mm 1 m/S 672 mmHg 60%
    15:00 +29°C° 0.9 mm 1 m/S 671 mmHg 64%
    16:00 +28°C° 1.4 mm 1 m/S 671 mmHg 70%
    17:00 +26°C° 1.4 mm 1 m/S 671 mmHg 77%
    18:00 +25°C° 1.4 mm 1 m/S 671 mmHg 83%
    19:00 +24°C° 1.6 mm 1 m/S 671 mmHg 84%
    20:00 +23°C° 1.6 mm 1 m/S 671 mmHg 86%
    21:00 +22°C° 1.6 mm 1 m/S 671 mmHg 88%
    22:00 +22°C° 0.2 mm 1 m/S 671 mmHg 88%
    23:00 +22°C° 0.2 mm 1 m/S 671 mmHg 89%

    Morgen, 20 Dezember, Donnerstag

    Zeit Temperatur Niederschläge Wind Luftdruck Luftfeuchtigkeit
    00:00 +21°C° 0.2 mm 1 m/S 671 mmHg 89%
    01:00 +21°C° 0 mm 1 m/S 670 mmHg 90%
    02:00 +21°C° 0 mm 1 m/S 670 mmHg 90%
    03:00 +20°C° 0 mm 1 m/S 669 mmHg 90%
    04:00 +20°C° 0 mm 1 m/S 669 mmHg 90%
    05:00 +21°C° 0 mm 1 m/S 670 mmHg 90%
    06:00 +21°C° 0 mm 1 m/S 670 mmHg 90%
    07:00 +22°C° 0 mm 1 m/S 670 mmHg 85%
    08:00 +24°C° 0 mm 2 m/S 671 mmHg 80%
    09:00 +25°C° 0 mm 2 m/S 671 mmHg 75%
    10:00 +27°C° 0 mm 2 m/S 671 mmHg 69%
    11:00 +28°C° 0 mm 2 m/S 671 mmHg 63%
    12:00 +30°C° 0 mm 2 m/S 671 mmHg 58%
    13:00 +30°C° 0.3 mm 2 m/S 671 mmHg 59%
    14:00 +30°C° 0.3 mm 2 m/S 670 mmHg 60%
    15:00 +30°C° 0.3 mm 2 m/S 670 mmHg 61%
    16:00 +28°C° 1.2 mm 2 m/S 669 mmHg 68%
    17:00 +27°C° 1.2 mm 2 m/S 669 mmHg 75%
    18:00 +25°C° 1.2 mm 2 m/S 669 mmHg 82%
    19:00 +24°C° 1 mm 1 m/S 669 mmHg 85%
    20:00 +23°C° 1 mm 1 m/S 670 mmHg 88%
    21:00 +22°C° 1 mm 1 m/S 670 mmHg 91%
    22:00 +21°C° 0.1 mm 1 m/S 670 mmHg 91%
    23:00 +21°C° 0.1 mm 1 m/S 670 mmHg 91%

    übermorgen, 21 Dezember, Freitag

    Zeit Temperatur Niederschläge Wind Luftdruck Luftfeuchtigkeit
    00:00 +21°C° 0.1 mm 1 m/S 670 mmHg 92%
    01:00 +21°C° 0 mm 1 m/S 669 mmHg 92%
    02:00 +21°C° 0 mm 1 m/S 669 mmHg 92%
    03:00 +18°C° 0 mm 0 m/S 668 mmHg 92%
    04:00 +18°C° 0 mm 0 m/S 669 mmHg 92%
    05:00 +19°C° 0 mm 0 m/S 669 mmHg 92%
    06:00 +19°C° 0 mm 0 m/S 669 mmHg 92%
    07:00 +23°C° 0 mm 1 m/S 670 mmHg 85%
    08:00 +25°C° 0 mm 1 m/S 670 mmHg 78%
    09:00 +26°C° 0 mm 2 m/S 671 mmHg 71%
    10:00 +28°C° 0 mm 2 m/S 670 mmHg 66%
    11:00 +29°C° 0 mm 3 m/S 670 mmHg 61%
    12:00 +30°C° 0 mm 4 m/S 670 mmHg 56%
    13:00 +30°C° 0.2 mm 3 m/S 670 mmHg 57%
    14:00 +30°C° 0.2 mm 3 m/S 669 mmHg 59%
    15:00 +30°C° 0.2 mm 3 m/S 669 mmHg 60%
    16:00 +28°C° 0.7 mm 3 m/S 669 mmHg 67%
    17:00 +27°C° 0.7 mm 2 m/S 669 mmHg 73%
    18:00 +25°C° 0.7 mm 2 m/S 669 mmHg 80%
    19:00 +24°C° 0.4 mm 2 m/S 669 mmHg 83%
    20:00 +23°C° 0.4 mm 2 m/S 669 mmHg 87%
    21:00 +21°C° 0.4 mm 1 m/S 670 mmHg 90%
    22:00 +21°C° 0 mm 1 m/S 669 mmHg 90%
    23:00 +21°C° 0 mm 1 m/S 669 mmHg 91%

    22 Dezember, Samstag

    Zeit Temperatur Niederschläge Wind Luftdruck Luftfeuchtigkeit
    00:00 +20°C° 0 mm 1 m/S 668 mmHg 92%
    01:00 +18°C° 0 mm 0 m/S 668 mmHg 91%
    02:00 +18°C° 0 mm 0 m/S 668 mmHg 91%
    03:00 +18°C° 0 mm 0 m/S 667 mmHg 91%
    04:00 +18°C° 0 mm 0 m/S 668 mmHg 90%
    05:00 +18°C° 0 mm 0 m/S 668 mmHg 89%
    06:00 +18°C° 0 mm 0 m/S 668 mmHg 88%
    07:00 +22°C° 0 mm 1 m/S 669 mmHg 81%
    08:00 +24°C° 0 mm 2 m/S 669 mmHg 73%
    09:00 +26°C° 0 mm 2 m/S 670 mmHg 66%
    10:00 +27°C° 0 mm 3 m/S 670 mmHg 63%
    11:00 +28°C° 0 mm 3 m/S 670 mmHg 59%
    12:00 +29°C° 0 mm 4 m/S 670 mmHg 56%
    13:00 +29°C° 0.2 mm 3 m/S 670 mmHg 58%
    14:00 +29°C° 0.2 mm 3 m/S 669 mmHg 59%
    15:00 +28°C° 0.2 mm 2 m/S 669 mmHg 61%
    16:00 +27°C° 0.3 mm 2 m/S 668 mmHg 68%
    17:00 +26°C° 0.3 mm 2 m/S 668 mmHg 75%
    18:00 +25°C° 0.3 mm 1 m/S 668 mmHg 81%
    19:00 +24°C° 0.1 mm 1 m/S 668 mmHg 83%
    20:00 +23°C° 0.1 mm 1 m/S 669 mmHg 84%
    21:00 +22°C° 0.1 mm 1 m/S 669 mmHg 85%
    22:00 +21°C° 0 mm 1 m/S 669 mmHg 85%
    23:00 +21°C° 0 mm 1 m/S 669 mmHg 86%

    23 Dezember, Sonntag

    Zeit Temperatur Niederschläge Wind Luftdruck Luftfeuchtigkeit
    00:00 +21°C° 0 mm 1 m/S 668 mmHg 86%
    01:00 +20°C° 0 mm 1 m/S 668 mmHg 85%
    02:00 +18°C° 0 mm 0 m/S 667 mmHg 85%
    03:00 +18°C° 0 mm 0 m/S 667 mmHg 85%
    04:00 +18°C° 0 mm 0 m/S 667 mmHg 84%
    05:00 +18°C° 0 mm 0 m/S 668 mmHg 83%
    06:00 +19°C° 0 mm 0 m/S 668 mmHg 82%
    07:00 +22°C° 0 mm 1 m/S 669 mmHg 76%
    08:00 +24°C° 0 mm 1 m/S 669 mmHg 69%
    09:00 +26°C° 0 mm 2 m/S 670 mmHg 63%
    10:00 +27°C° 0.2 mm 2 m/S 670 mmHg 62%
    11:00 +28°C° 0.2 mm 2 m/S 670 mmHg 61%
    12:00 +28°C° 0.2 mm 3 m/S 670 mmHg 59%
    13:00 +28°C° 0.9 mm 3 m/S 669 mmHg 64%
    14:00 +27°C° 0.9 mm 2 m/S 669 mmHg 69%
    15:00 +26°C° 0.9 mm 2 m/S 669 mmHg 74%
    16:00 +25°C° 1.6 mm 2 m/S 669 mmHg 79%
    17:00 +24°C° 1.6 mm 2 m/S 668 mmHg 84%
    18:00 +22°C° 1.6 mm 1 m/S 668 mmHg 90%
    19:00 +22°C° 0.4 mm 1 m/S 669 mmHg 91%
    20:00 +21°C° 0.4 mm 1 m/S 669 mmHg 92%
    21:00 +20°C° 0.4 mm 1 m/S 669 mmHg 92%
    22:00 +20°C° 0.1 mm 1 m/S 669 mmHg 93%
    23:00 +20°C° 0.1 mm 1 m/S 669 mmHg 93%

    24 Dezember, Montag

    Zeit Temperatur Niederschläge Wind Luftdruck Luftfeuchtigkeit
    00:00 +19°C° 0.1 mm 1 m/S 668 mmHg 93%
    01:00 +19°C° 0.1 mm 1 m/S 668 mmHg 93%
    02:00 +19°C° 0.1 mm 1 m/S 668 mmHg 92%
    03:00 +19°C° 0.1 mm 1 m/S 667 mmHg 92%
    04:00 +19°C° 0 mm 1 m/S 668 mmHg 92%
    05:00 +17°C° 0 mm 0 m/S 668 mmHg 91%
    06:00 +18°C° 0 mm 0 m/S 668 mmHg 91%
    07:00 +19°C° 0.2 mm 0 m/S 669 mmHg 88%
    08:00 +20°C° 0.2 mm 0 m/S 669 mmHg 85%
    09:00 +21°C° 0.2 mm 0 m/S 670 mmHg 82%
    10:00 +23°C° 0.6 mm 1 m/S 670 mmHg 81%
    11:00 +23°C° 0.6 mm 1 m/S 670 mmHg 81%
    12:00 +23°C° 0.6 mm 1 m/S 670 mmHg 81%
    13:00 +23°C° 0.6 mm 1 m/S 669 mmHg 82%
    14:00 +23°C° 0.6 mm 1 m/S 669 mmHg 83%
    15:00 +22°C° 0.6 mm 1 m/S 668 mmHg 84%
    16:00 +22°C° 0.4 mm 1 m/S 668 mmHg 86%
    17:00 +22°C° 0.4 mm 1 m/S 668 mmHg 88%
    18:00 +21°C° 0.4 mm 1 m/S 668 mmHg 91%
    19:00 +21°C° 0.2 mm 1 m/S 668 mmHg 92%
    20:00 +20°C° 0.2 mm 1 m/S 669 mmHg 93%
    21:00 +20°C° 0.2 mm 1 m/S 669 mmHg 94%
    22:00 +19°C° 0.2 mm 1 m/S 669 mmHg 94%
    23:00 +19°C° 0.2 mm 1 m/S 669 mmHg 94%
    Mehr zeigen